Wind_Speed
2 4 4 5 6 8 8 7 6 5 4 1 2 3 5 4 5 5 4 5 1 3 6 7 8 10 11 12 7 1 2 4 7 8 8 7 6 7 8 9 10 10 13 17 18 19 22 25 26 27 28 28 28 29 30 31 32 33 32 32 32 32 31 32 31 31 31 30 29 28 28 27 25 22 20 21 20 19 18 16 16 16 16 15 14 13
2 5 5 6 7 9 9 8 7 5 1 3 4 5 6 4 6 6 3 5 2 3 4 3 6 10 11 11 6 2 3 6 9 10 10 9 8 7 8 11 11 10 11 11 12 18 22 24 25 26 28 28 29 31 31 32 34 34 33 34 33 32 32 33 33 32 32 32 30 28 28 27 25 23 21 21 21 20 19 18 17 15 16 16 16 16
3 4 5 7 7 9 9 10 9 7 3 3 4 4 6 3 4 6 3 4 3 2 3 2 4 9 11 11 6 5 7 8 9 11 11 10 9 8 10 10 10 9 10 8 11 16 21 24 25 26 27 29 31 32 32 34 34 34 34 35 34 32 33 33 33 33 32 31 30 29 28 26 25 24 23 21 20 20 19 19 18 17 17 17 16 14
3 3 6 8 10 12 9 10 11 6 3 3 3 4 6 3 2 3 2 2 2 1 0 0 3 7 8 7 6 8 9 7 6 9 9 8 10 11 10 8 9 11 11 9 10 13 17 21 22 25 28 29 30 31 32 34 34 35 36 36 35 34 33 33 33 33 32 30 28 28 27 25 24 23 22 20 20 20 19 18 19 18 17 16 14 12
2 3 7 11 11 12 11 10 11 7 4 5 5 6 6 5 4 3 3 3 2 1 1 2 4 7 6 6 8 6 4 5 5 6 8 8 10 9 6 7 9 10 11 11 11 11 14 19 22 26 28 28 29 32 34 35 35 36 37 37 36 35 34 34 34 33 32 30 28 26 24 21 21 20 19 18 19 19 18 18 17 16 16 17 13 10
1 4 6 11 10 11 11 9 10 8 6 5 6 8 9 8 6 3 4 3 1 3 2 1 2 7 4 5 10 6 3 6 5 5 9 10 9 7 7 10 11 10 10 10 11 11 12 18 22 24 26 27 29 33 34 35 36 36 37 37 36 35 35 34 34 34 33 31 29 27 25 22 20 19 18 18 18 18 18 17 16 14 16 17 13 11
2 4 7 12 11 11 10 8 9 9 6 3 4 7 10 9 6 3 2 1 3 4 3 1 4 7 6 5 8 4 4 8 6 5 10 9 8 8 9 11 10 10 10 9 10 10 12 17 19 22 26 29 32 34 34 34 35 36 36 36 35 35 34 34 34 33 33 32 31 30 29 27 24 22 21 20 19 18 18 17 14 14 14 13 11 13
5 6 6 9 10 9 8 7 9 10 7 3 2 4 7 8 8 6 4 4 4 3 4 1 3 4 6 7 5 1 3 8 8 8 10 9 9 10 11 12 11 11 11 9 10 10 12 17 20 24 28 32 33 33 33 33 34 35 35 35 35 35 34 34 34 33 33 33 32 31 30 28 28 26 24 22 20 19 18 15 12 13 14 14 13 13
5 9 9 10 9 6 7 7 11 13 8 3 0 3 3 3 3 3 3 4 2 2 4 3 3 3 7 6 3 2 3 8 8 10 11 11 12 12 13 13 12 11 10 9 10 10 13 18 23 27 29 31 32 32 32 33 34 34 33 34 33 33 34 34 34 33 33 33 33 32 31 29 28 27 25 22 19 18 16 13 12 12 13 14 15 14
2 7 10 11 8 5 5 6 11 14 8 3 4 5 5 4 3 2 2 2 1 2 8 7 5 4 6 5 3 1 3 7 7 8 10 11 11 12 12 12 11 9 7 8 9 11 14 19 23 25 24 25 27 29 30 30 31 31 32 32 32 33 33 33 33 33 33 33 32 32 31 30 28 26 24 21 19 17 16 13 13 13 12 13 14 13
1 2 5 6 4 3 5 4 4 7 5 3 4 4 5 4 4 3 1 2 0 6 8 6 7 6 6 5 4 4 5 7 8 7 8 9 9 10 10 10 10 8 7 8 8 10 15 17 18 19 20 21 22 24 26 27 28 30 30 31 32 32 32 33 33 33 33 32 33 33 32 31 29 27 25 22 20 18 18 17 15 15 17 17 16 13
3 5 3 2 2 5 7 4 3 3 3 4 3 3 2 2 2 3 3 2 4 8 4 3 2 6 7 5 3 6 6 6 8 8 10 11 10 9 8 8 8 7 7 8 7 9 11 12 13 15 18 19 19 21 23 26 27 28 29 30 31 31 31 31 31 32 32 32 32 32 32 31 30 29 27 24 22 20 20 19 17 18 19 19 16 13
3 3 3 0 1 5 7 5 2 3 3 3 3 4 3 1 1 2 1 1 5 6 3 3 1 4 8 6 5 8 8 8 9 8 10 11 9 8 7 6 6 6 7 7 7 8 7 8 11 15 18 19 19 21 23 24 25 26 28 29 30 30 30 30 30 30 30 31 32 32 31 31 30 29 28 26 24 23 22 20 20 22 21 18 15 12
1 2 4 4 1 5 9 8 5 5 6 6 5 5 5 3 4 5 4 2 4 5 3 1 2 3 5 4 9 12 10 10 8 8 9 9 9 9 7 6 6 6 6 7 6 7 6 8 12 15 18 19 20 20 21 22 23 24 25 27 28 29 29 29 29 29 29 30 30 30 31 30 30 29 28 27 25 23 23 22 23 24 22 19 16 14
6 2 7 9 5 7 11 9 6 7 7 7 5 4 4 4 5 6 4 3 4 3 3 2 2 3 2 3 8 10 9 7 5 7 7 7 9 7 7 7 7 7 6 5 6 6 7 9 12 14 16 18 18 19 20 21 21 22 23 25 26 27 27 28 28 28 29 29 29 30 30 30 30 28 27 27 25 23 24 24 23 23 21 19 16 14
7 2 4 4 5 12 11 5 5 8 7 5 4 4 5 5 4 1 2 4 3 1 2 2 3 4 3 6 7 4 6 7 6 6 6 8 8 5 6 8 6 6 5 5 5 6 6 8 11 12 14 16 17 18 19 20 21 22 22 23 24 25 25 26 27 28 28 28 29 29 30 29 29 28 28 28 25 24 25 25 25 24 22 19 15 13
4 1 1 3 5 10 10 7 6 4 5 4 4 6 5 3 4 1 2 1 3 2 3 2 4 5 3 7 8 4 5 7 7 7 7 9 7 4 8 8 6 5 5 5 5 5 6 7 9 11 13 14 15 17 18 18 19 21 21 22 22 23 23 24 25 27 28 28 29 30 30 30 29 29 29 28 26 27 28 27 26 24 21 18 15 14
5 2 1 4 7 4 3 9 6 2 5 6 6 7 2 2 2 1 2 2 2 4 4 0 4 5 2 5 6 4 5 7 8 8 8 8 6 6 10 8 5 6 5 5 5 5 5 7 9 11 12 13 14 15 15 17 17 18 19 21 22 22 23 24 25 26 27 28 30 30 31 31 30 30 30 28 27 28 29 28 26 23 19 16 15 16
5 4 2 3 6 1 1 7 7 4 2 5 5 5 4 3 5 3 3 2 3 5 4 2 3 3 4 5 3 3 8 8 9 9 8 9 9 9 9 7 5 6 5 5 5 5 5 6 9 11 12 12 12 13 14 15 16 17 18 19 20 21 22 23 24 25 26 28 29 30 31 31 31 30 30 29 28 28 29 28 25 21 18 16 17 18
5 5 0 2 4 4 2 5 9 6 1 4 2 3 2 3 5 5 4 3 3 4 3 3 3 2 6 6 5 7 9 9 10 9 8 10 9 8 7 6 6 6 6 6 6 5 4 7 9 11 12 13 12 12 12 12 12 14 15 16 17 18 19 21 23 25 26 28 29 30 30 30 30 30 30 30 29 29 28 27 24 21 19 18 20 20
4 4 3 2 2 5 4 5 9 9 5 4 4 5 4 3 2 2 2 2 2 3 3 3 3 5 6 5 8 10 10 9 9 8 8 7 7 7 7 6 6 6 6 5 5 5 5 7 9 10 11 11 11 11 11 10 11 12 13 15 17 18 19 22 24 25 27 28 28 28 29 29 29 29 30 30 30 29 28 25 22 21 20 21 22 21
3 3 6 5 4 5 3 2 4 7 8 7 6 6 5 5 3 3 5 3 2 2 4 3 4 7 6 5 8 11 10 7 4 4 6 6 6 7 6 6 6 6 6 5 5 5 4 7 9 9 10 11 11 13 12 12 12 13 14 16 17 19 21 23 25 26 26 27 27 28 29 29 29 29 30 30 29 27 26 24 22 22 22 23 23 22
3 5 5 4 4 4 1 2 1 3 6 5 4 5 4 4 5 6 8 3 1 1 1 2 4 7 6 5 7 8 7 4 2 3 6 7 7 7 6 6 6 5 5 4 4 4 5 7 9 10 11 11 12 14 14 14 14 15 16 17 18 20 22 23 25 25 26 26 27 28 28 29 29 30 30 29 27 25 23 23 23 23 24 25 24 24
4 5 5 4 1 2 3 3 4 4 4 4 4 4 5 4 4 4 5 3 3 4 2 2 6 7 6 3 4 6 6 6 5 5 6 7 6 6 6 6 5 5 5 4 3 3 4 5 7 9 11 12 13 14 15 16 16 16 17 18 19 20 21 21 23 24 26 27 27 27 28 28 29 29 28 27 25 23 23 24 25 26 26 27 27 26
3 4 5 6 4 2 2 2 2 2 3 4 3 3 4 4 4 2 1 2 3 6 6 6 8 7 5 4 3 5 5 6 7 5 6 7 6 6 5 5 5 5 4 4 4 4 4 5 7 9 11 12 14 15 16 17 17 18 19 19 19 19 20 20 22 23 25 26 27 27 27 28 28 27 26 24 23 23 25 26 27 27 28 29 28 27
3 5 6 8 8 8 8 7 7 6 3 2 2 4 4 5 6 4 1 3 6 6 5 7 7 6 6 5 5 5 5 6 7 4 3 6 6 6 5 4 4 4 4 5 5 5 5 5 7 10 13 14 15 16 17 18 18 18 19 20 20 20 20 20 21 23 24 24 25 26 26 26 26 25 24 23 24 26 27 28 29 30 30 29 29 28
3 4 6 10 11 11 11 7 6 10 8 8 9 9 7 7 7 5 2 5 6 1 2 7 5 3 6 5 5 7 6 6 7 6 5 5 6 6 5 4 4 4 5 5 5 6 6 6 8 11 14 16 16 17 18 19 19 19 20 21 21 21 22 22 22 22 23 24 24 24 25 24 23 23 23 25 27 28 29 30 31 31 30 29 28 28
4 5 11 13 11 6 5 5 8 13 13 14 13 12 10 8 8 8 8 10 5 3 8 9 5 5 8 6 6 9 7 5 6 6 6 6 5 5 4 3 4 5 5 5 6 7 7 8 7 9 13 16 16 18 19 19 20 20 21 21 22 23 24 25 25 24 24 24 24 24 24 24 23 24 25 27 29 30 31 32 31 31 30 29 28 27
5 7 11 12 9 4 5 7 10 11 10 11 13 13 11 9 10 11 15 12 7 6 13 5 6 9 8 5 9 9 5 4 5 6 5 5 4 2 2 3 5 6 6 7 8 8 9 9 7 9 14 16 17 18 19 19 20 21 21 22 23 24 25 26 27 27 26 26 26 25 25 26 26 27 29 30 31 32 33 32 32 31 30 28 27 27
5 6 8 9 8 4 4 7 11 10 8 8 11 13 12 11 12 14 17 13 8 12 13 3 7 12 6 6 11 7 2 4 4 5 5 5 4 3 3 6 7 7 7 8 9 8 9 9 8 10 14 16 19 20 20 20 21 22 23 23 24 25 27 27 28 28 27 27 27 27 28 29 30 30 30 32 33 34 34 33 32 31 30 29 28 27
2 4 5 7 6 2 1 3 6 8 9 9 10 13 15 15 17 17 17 11 8 14 12 5 11 14 5 5 9 7 4 5 5 7 7 5 4 4 5 7 8 8 8 9 9 8 8 8 9 10 14 18 21 21 21 23 23 24 25 25 26 27 27 27 28 28 28 27 28 29 31 31 31 31 32 34 35 35 34 33 32 31 30 29 28 27
2 2 3 6 6 3 2 3 4 5 5 4 9 14 18 18 16 15 14 11 13 16 11 7 12 9 2 3 8 9 9 8 8 10 8 5 5 6 7 8 9 9 9 9 9 8 9 10 10 12 15 19 21 22 24 25 25 26 28 28 28 27 26 27 27 28 28 28 29 30 31 32 32 33 34 36 36 35 35 33 32 32 31 30 29 27
5 4 2 5 6 3 2 5 6 7 5 4 11 15 17 15 13 13 14 16 18 15 10 11 13 5 6 6 11 12 11 9 10 10 8 7 7 7 8 9 9 9 9 8 8 9 10 11 13 16 18 20 22 26 28 27 28 29 29 28 27 27 27 27 28 28 28 29 30 31 32 32 33 35 36 36 36 35 35 34 33 33 31 30 29 28
7 7 4 4 5 4 3 5 7 5 5 9 9 13 17 16 16 17 16 16 16 15 13 16 14 6 6 10 14 15 14 10 8 8 7 7 7 7 9 10 11 10 9 8 9 10 10 11 14 17 20 22 25 27 28 28 29 29 27 27 27 27 28 29 28 28 29 29 30 31 33 34 35 36 36 36 36 35 35 34 34 33 32 31 30 28
9 8 4 3 4 3 4 6 6 8 11 7 4 11 17 19 20 19 17 15 16 17 18 19 17 12 11 13 14 13 11 8 5 5 7 7 8 8 9 10 11 9 9 9 10 10 10 11 14 18 21 24 25 25 26 27 28 27 26 27 28 28 29 30 29 29 30 30 31 32 34 35 36 37 36 36 36 36 35 35 34 33 32 30 30 28
11 8 4 3 3 3 3 6 8 7 5 1 1 4 10 12 11 12 13 15 16 16 17 19 19 14 11 12 11 6 3 4 4 5 8 9 8 8 9 10 10 9 10 10 9 10 12 15 19 21 21 22 22 24 27 28 28 27 26 26 27 28 29 29 30 30 31 31 33 34 36 37 37 37 37 37 37 36 36 35 34 33 32 31 29 27
10 9 6 3 3 3 4 6 4 5 6 5 5 4 5 8 9 9 9 12 15 16 16 15 16 14 12 12 10 3 1 4 5 7 9 8 8 11 12 12 9 9 9 9 8 11 13 16 18 19 19 19 21 25 28 28 28 27 26 26 27 28 29 29 30 31 31 33 34 36 37 38 38 38 38 38 38 37 36 35 34 33 32 31 29 27
5 7 9 7 2 3 5 3 2 4 9 8 5 5 6 8 10 11 8 10 11 13 15 15 16 16 15 14 11 5 3 2 7 10 8 8 11 12 11 10 9 10 11 10 9 11 11 13 15 16 18 19 21 24 26 27 29 28 27 27 28 29 29 30 30 31 33 34 35 36 38 38 39 39 39 39 38 38 37 35 34 33 32 31 30 28
3 2 6 8 3 3 6 5 5 9 9 5 7 8 7 9 11 10 2 8 8 10 12 14 15 16 15 14 10 8 5 6 10 10 7 9 11 9 7 9 10 11 13 13 12 11 10 10 12 13 16 19 21 23 25 27 29 29 28 28 29 29 30 32 34 35 35 35 35 37 38 38 38 39 39 39 39 38 37 36 34 33 31 29 29 28
5 3 5 8 6 6 7 6 5 6 6 5 8 9 9 11 12 10 3 8 7 10 11 13 15 16 15 13 9 8 9 11 9 7 5 5 4 2 3 6 7 7 11 11 11 11 10 10 12 14 17 21 22 22 24 27 28 29 28 28 28 30 33 36 37 36 35 35 35 36 37 38 38 39 39 39 38 37 37 36 34 33 31 29 28 27
3 3 4 7 7 6 7 7 5 4 6 7 6 8 12 12 10 7 9 6 5 8 8 10 13 13 10 9 7 7 10 10 5 2 2 3 2 2 1 4 4 4 8 8 7 8 9 11 13 15 16 18 19 20 24 27 28 28 27 27 29 33 35 34 32 32 32 33 34 35 36 37 37 37 37 37 37 37 36 35 33 32 31 29 28 27
5 4 3 5 6 4 4 5 4 6 6 6 5 4 7 8 6 9 7 2 4 7 5 7 9 8 7 8 9 9 8 5 3 3 3 4 2 1 3 5 4 3 5 5 1 4 8 11 11 11 12 13 15 19 23 26 27 25 25 26 29 31 29 27 27 29 30 31 32 33 34 35 35 35 35 36 36 36 35 33 32 32 31 30 29 27
8 8 6 7 6 3 3 5 3 7 6 10 12 3 4 4 6 6 2 2 2 5 6 6 7 6 7 8 9 9 6 3 4 4 2 3 3 3 2 3 4 4 5 5 3 1 6 9 9 8 8 10 13 18 22 25 25 24 24 26 27 25 22 23 26 28 29 30 31 32 33 34 34 34 35 35 35 36 35 34 32 31 31 30 29 28
5 7 7 6 5 5 7 8 6 5 5 11 13 8 7 6 4 4 4 3 2 3 5 4 5 6 8 8 7 8 6 5 5 3 0 1 2 3 2 3 4 4 5 6 4 2 3 6 7 7 7 8 11 16 20 23 23 22 22 23 22 21 21 22 24 26 28 29 30 31 32 33 34 34 35 35 35 35 35 34 33 31 30 30 29 28
6 6 6 5 4 5 6 6 4 2 5 6 5 3 5 5 3 3 5 3 2 4 4 4 4 6 6 6 6 5 6 5 4 3 3 3 3 4 3 3 3 4 5 5 5 4 3 5 6 7 7 8 10 14 17 20 21 20 20 20 20 20 21 22 24 26 28 29 30 31 32 32 33 33 34 35 35 36 36 35 34 32 31 30 29 29
3 2 3 3 2 3 3 2 1 1 4 4 0 2 2 2 1 3 5 3 2 4 4 2 4 5 5 5 5 4 5 5 4 4 3 4 4 3 3 3 3 3 4 5 5 5 4 6 7 7 7 7 9 12 15 18 19 19 18 18 19 20 21 23 24 26 28 29 30 30 31 32 32 33 33 34 35 36 36 36 36 34 32 31 29 28
3 2 2 3 4 5 5 4 4 4 6 6 3 3 2 1 1 1 3 3 2 3 3 2 3 4 5 5 5 4 4 4 4 3 3 4 4 3 3 3 3 3 4 4 5 4 5 6 7 7 7 8 9 11 13 16 17 16 16 17 17 19 21 22 25 26 27 29 29 30 31 33 33 33 34 34 35 35 34 35 35 34 34 33 31 29
2 4 4 3 5 5 4 4 4 2 4 5 3 2 2 3 1 1 2 4 4 5 4 2 3 5 4 4 4 4 3 3 4 4 4 3 3 3 3 2 3 4 4 4 4 4 5 6 7 8 8 8 9 10 12 14 15 15 15 15 17 19 20 22 25 26 27 28 29 30 32 33 34 34 35 35 35 35 34 34 34 35 35 35 34 33
4 6 5 4 5 3 3 3 2 2 4 5 6 6 6 4 4 4 3 5 6 6 5 5 4 3 4 3 3 4 5 4 4 4 5 4 3 3 3 3 3 4 4 4 4 4 4 5 6 7 7 7 8 9 10 12 13 14 14 15 16 18 20 23 24 25 26 28 29 31 31 32 33 34 34 35 35 34 33 33 34 34 34 34 34 33
5 5 3 4 5 7 5 6 7 4 1 6 10 9 7 6 6 6 5 5 6 6 7 7 6 5 5 4 2 4 6 4 3 4 5 4 3 4 4 5 5 4 4 4 4 3 3 3 3 4 5 5 5 7 9 10 11 12 13 14 16 18 20 22 24 24 26 27 28 30 31 31 32 32 33 33 33 32 30 30 30 31 31 30 31 31
6 7 7 7 8 8 6 10 10 7 5 7 7 7 7 6 6 7 6 5 5 5 6 7 7 6 5 6 5 5 6 5 4 5 5 4 4 4 5 5 4 4 4 3 3 3 3 3 2 2 2 3 4 5 7 8 9 10 11 13 14 17 19 21 23 24 25 26 28 29 30 31 31 31 31 31 31 31 30 27 26 25 25 25 26 26
Wind_Direction
154 158 187 181 168 174 177 176 158 112 70 313 268 282 278 263 277 263 255 291 241 176 229 217 223 242 250 258 263 306 150 204 237 244 241 231 220 225 224 229 229 226 236 240 237 234 233 232 230 227 226 226 227 229 229 227 226 226 226 227 228 228 227 227 227 226 225 224 225 226 228 230 232 234 239 242 243 243 245 245 248 257 256 255 264 262
188 190 182 171 169 163 154 145 149 154 144 304 285 285 283 248 264 271 265 314 335 186 249 240 237 252 255 260 264 125 165 221 225 225 233 228 221 223 223 230 231 234 245 246 240 235 232 233 230 227 225 224 225 227 227 228 228 227 227 228 229 229 227 227 227 226 226 226 226 227 229 231 231 232 237 240 242 244 247 250 252 257 255 254 261 257
195 201 161 157 143 127 134 140 151 170 182 266 280 281 281 261 273 272 255 327 2 184 270 323 248 256 258 257 245 182 203 233 223 216 225 219 218 226 223 229 233 240 248 240 237 234 228 229 227 224 222 222 224 226 227 228 229 228 228 228 229 230 229 229 228 227 228 229 229 231 233 234 233 234 239 240 243 246 249 251 251 254 254 254 257 259
186 203 156 143 129 130 142 151 151 154 176 224 251 262 265 261 279 281 277 326 11 94 269 17 270 267 265 270 261 221 219 246 237 222 229 216 216 227 225 226 228 235 242 238 238 234 227 227 224 220 220 221 223 224 226 227 227 227 228 229 229 230 231 231 229 229 230 230 230 230 231 234 233 233 238 238 238 242 248 251 249 249 256 261 261 260
166 226 161 141 145 150 149 160 163 163 197 218 222 233 249 253 240 249 300 313 333 8 98 86 321 283 255 260 265 245 223 259 256 230 243 238 228 234 242 237 228 230 235 234 237 232 223 222 221 220 219 219 219 221 224 225 226 227 228 229 229 230 232 232 231 229 228 226 224 223 222 224 226 228 230 227 228 233 240 247 250 250 254 255 251 253
164 237 166 143 157 160 155 171 175 171 194 227 225 220 233 248 249 257 311 322 304 279 264 123 267 273 284 261 250 250 224 245 244 219 237 243 234 229 238 239 232 230 231 230 237 235 223 222 223 222 219 217 218 222 224 225 227 228 229 230 229 230 231 231 231 228 225 223 221 218 214 213 216 219 221 222 226 230 233 238 247 253 257 252 240 242
162 212 172 156 161 159 164 182 180 169 174 237 230 203 217 236 243 246 285 273 221 252 284 151 204 258 303 269 243 256 253 248 254 246 243 245 239 224 227 235 231 230 231 229 238 236 224 222 220 220 219 216 220 224 225 225 227 228 229 229 228 229 230 230 228 226 224 221 220 219 218 216 216 217 222 229 234 235 233 235 242 249 254 253 245 247
144 172 179 160 153 158 178 185 176 165 158 225 250 174 200 225 232 222 191 206 235 278 301 278 168 244 272 253 247 335 285 266 266 259 254 246 240 233 232 234 228 226 224 221 230 229 222 220 216 218 220 219 222 225 224 223 225 226 227 228 228 228 229 229 227 225 223 221 220 220 220 220 221 223 227 232 237 237 235 237 238 241 244 241 237 239
133 168 178 159 155 178 188 168 160 161 169 226 237 113 167 199 224 213 184 222 273 338 276 253 150 218 260 269 307 21 246 260 260 249 248 242 235 235 235 235 232 228 220 215 222 224 221 220 219 220 222 223 224 223 222 223 224 225 225 226 227 227 227 227 226 225 224 223 222 221 220 220 222 227 229 231 233 233 235 237 230 232 238 231 220 216
198 186 173 160 169 186 161 141 159 169 181 198 128 94 65 64 57 67 163 200 15 278 246 228 186 212 261 267 280 316 236 244 253 249 245 240 236 236 237 240 239 233 226 222 226 227 225 224 224 225 225 225 224 223 223 223 223 223 223 223 223 225 226 226 225 225 224 224 223 221 220 220 221 222 224 225 225 226 230 228 219 220 225 222 211 204
213 140 152 163 174 152 123 107 136 162 154 112 119 88 49 39 34 41 69 96 137 255 249 228 195 202 259 260 217 225 216 208 225 249 257 254 248 243 241 245 243 233 225 226 229 233 232 231 229 226 225 225 224 222 221 221 221 221 221 221 222 224 225 225 224 225 224 223 222 222 221 222 222 220 220 218 216 219 218 211 210 212 211 210 208 207
84 106 148 190 146 111 115 124 67 65 84 80 105 115 75 360 9 15 2 67 216 243 270 310 199 190 240 255 219 243 243 218 215 226 244 250 250 249 246 249 247 236 227 222 225 230 227 223 219 216 218 219 217 217 217 217 218 218 219 219 220 222 222 223 224 224 223 222 221 222 223 223 223 222 219 216 214 213 208 203 206 206 200 197 199 215
79 156 193 171 147 137 134 149 121 89 101 94 127 151 146 166 170 226 248 178 231 249 295 338 163 204 242 246 251 265 263 248 230 220 237 247 253 258 258 260 257 245 231 223 222 222 215 206 202 203 205 206 206 209 211 213 214 215 217 218 219 220 221 221 222 222 221 221 220 221 222 222 223 222 221 219 216 211 206 204 205 201 199 200 205 222
82 281 210 166 182 177 165 164 161 165 170 170 179 175 170 159 170 204 209 212 250 259 283 296 186 249 281 261 243 245 244 241 231 229 240 246 253 260 268 277 276 260 238 229 224 216 210 203 198 198 198 197 199 201 203 206 208 210 213 215 218 220 220 220 220 220 219 219 220 221 221 222 221 221 221 219 216 211 206 206 205 203 205 210 216 225
159 235 207 181 173 178 181 182 154 137 160 185 177 159 208 211 181 199 202 209 237 256 284 284 190 205 223 251 242 236 252 266 246 245 255 256 257 263 280 282 273 261 243 231 228 220 216 203 194 193 193 193 194 195 197 200 203 205 208 211 215 217 218 218 218 218 218 219 219 220 220 221 221 221 221 218 216 213 208 205 206 207 211 214 217 226
170 241 224 172 151 166 175 180 136 123 148 189 151 147 230 220 148 166 195 183 186 228 270 245 225 214 210 269 279 265 278 279 257 258 264 260 261 266 274 270 259 254 242 226 226 224 223 205 192 188 187 189 190 191 195 198 201 204 207 209 212 216 217 217 217 218 219 219 218 218 217 218 219 219 218 214 211 211 211 209 208 209 209 209 215 226
170 266 289 81 130 173 173 160 164 164 157 157 167 189 216 169 113 67 257 90 83 214 251 195 238 287 311 282 297 339 307 282 266 263 251 251 263 273 262 256 249 248 235 223 222 220 221 205 195 193 189 189 190 193 198 200 204 207 209 211 213 215 216 215 216 217 218 218 217 216 215 215 216 216 214 211 210 209 206 205 205 203 200 205 220 227
156 104 243 154 149 197 190 154 176 247 140 143 193 194 139 90 124 154 245 326 66 226 271 189 222 274 280 264 306 340 283 271 262 253 252 260 264 253 251 248 246 247 235 232 228 224 223 205 199 197 193 195 198 202 207 208 211 213 214 217 216 216 216 215 215 216 216 216 214 213 212 211 213 214 211 211 212 208 201 197 197 196 199 213 225 221
143 99 308 202 154 166 12 152 185 253 152 140 182 169 124 189 214 189 193 218 203 226 281 304 257 255 212 231 290 241 233 247 254 248 247 255 246 239 249 253 250 246 236 230 225 222 221 207 201 195 194 197 200 207 215 219 221 219 219 221 221 222 221 217 214 213 213 213 212 211 210 209 209 209 208 207 205 202 197 194 193 198 213 224 220 210
144 113 247 247 155 146 120 174 193 207 136 76 123 176 157 193 210 199 187 184 197 222 264 290 300 266 224 217 210 227 235 234 246 253 245 247 246 243 251 249 241 234 227 220 214 213 215 211 205 197 196 197 200 210 218 224 227 220 217 219 218 219 218 213 210 208 207 208 208 207 205 205 204 203 204 201 197 195 195 195 198 211 223 219 206 199
148 119 143 157 139 143 162 208 192 180 176 161 177 196 189 193 212 220 210 166 158 196 217 244 273 266 247 213 199 224 239 230 236 251 252 257 262 255 252 247 242 234 228 223 210 204 207 212 208 199 199 200 203 210 213 220 225 217 213 213 211 210 207 205 202 201 202 201 201 201 199 199 198 198 198 194 192 193 194 197 207 217 216 204 195 189
157 127 137 146 167 166 176 242 178 171 182 183 194 200 189 193 187 211 232 211 123 194 189 188 260 268 253 210 201 217 227 230 238 253 261 272 268 261 257 242 236 233 229 223 210 205 203 205 201 195 197 198 201 205 204 211 216 212 210 208 207 206 203 200 197 195 196 195 194 195 194 193 192 190 190 189 188 190 194 202 209 208 200 192 185 179
112 106 115 134 183 186 158 4 50 148 152 149 202 205 174 182 185 210 232 216 114 249 142 129 258 268 257 218 215 233 245 259 271 258 268 276 271 272 272 250 238 238 235 218 205 212 206 202 198 192 196 199 200 203 202 203 207 208 208 205 203 202 199 196 193 191 192 191 189 188 188 187 185 184 185 186 188 193 199 204 201 194 190 183 175 172
125 114 101 98 107 353 357 4 14 34 103 152 214 185 163 195 187 201 223 181 190 220 151 197 255 266 271 242 227 257 278 285 266 243 252 266 274 277 276 265 243 234 234 212 197 210 203 201 199 194 198 200 199 202 201 200 202 205 206 204 201 199 196 193 188 186 187 186 185 185 185 184 183 183 186 188 193 199 200 196 190 184 182 177 172 171
153 141 125 119 113 40 355 319 284 231 183 188 199 147 158 165 115 116 207 137 226 226 183 209 246 254 273 304 297 276 288 286 266 234 231 252 272 280 280 275 246 225 221 207 197 197 192 195 200 200 203 203 201 202 202 201 201 202 204 203 201 198 194 191 187 185 185 184 183 183 184 184 184 186 189 193 197 197 192 188 183 178 176 174 172 171
144 157 148 144 154 175 189 205 208 192 173 158 138 130 161 169 155 169 178 181 234 234 178 208 243 260 286 308 305 294 303 293 284 290 264 255 261 266 268 265 243 216 208 208 200 197 200 202 206 207 207 206 205 204 202 202 202 201 201 202 203 201 196 192 189 186 185 186 185 183 184 186 187 189 194 198 197 192 187 183 178 174 174 175 173 171
116 161 184 182 183 187 188 190 148 132 153 190 180 160 162 178 173 151 144 216 220 175 207 231 226 252 279 279 278 287 286 274 284 309 308 282 270 265 258 251 235 213 208 208 202 204 208 209 211 211 209 208 207 206 205 204 202 201 200 201 202 202 199 198 197 193 191 192 192 191 191 192 194 199 200 197 192 187 182 178 175 173 174 174 174 173
112 182 202 201 206 194 160 147 136 146 176 191 178 169 170 170 162 165 212 224 170 137 251 240 176 209 255 260 265 271 264 263 277 275 276 283 282 272 262 248 232 220 213 207 208 210 212 216 217 213 212 210 208 208 206 204 203 204 204 203 203 202 201 201 203 202 200 199 200 200 199 200 202 202 197 191 187 183 178 175 174 174 174 174 176 176
155 205 202 195 205 198 139 145 150 160 181 180 175 184 182 174 175 194 224 223 167 212 250 229 168 216 236 241 254 255 232 236 262 265 274 287 286 268 241 244 242 234 225 217 217 216 215 218 216 210 211 210 208 207 205 203 202 202 202 203 204 205 205 204 205 206 206 205 205 204 202 200 198 194 190 187 183 179 176 174 174 174 174 175 176 176
174 202 188 174 185 193 168 166 156 153 164 172 186 192 185 189 198 212 230 228 203 238 257 264 237 244 226 224 256 269 206 214 256 292 300 289 281 270 240 246 249 243 236 229 226 222 218 220 216 212 211 208 207 206 202 201 200 200 201 202 203 205 206 206 206 206 205 204 204 201 197 194 191 188 186 184 181 177 176 175 175 175 175 176 177 177
197 189 152 135 156 200 258 176 153 146 157 172 195 199 195 202 209 218 230 229 228 248 254 267 267 263 239 230 268 291 284 272 288 292 281 257 241 235 238 246 245 241 238 233 231 226 221 222 218 215 214 212 209 205 201 202 202 201 203 203 203 203 202 202 202 201 200 198 197 194 191 189 187 186 184 182 179 178 177 177 176 176 177 176 177 177
118 154 106 117 154 243 305 141 128 96 109 175 219 210 202 205 211 221 227 217 225 242 248 258 264 259 168 213 262 265 262 268 272 270 269 256 226 214 231 246 246 240 236 232 230 225 221 222 218 216 216 214 210 206 204 203 202 202 204 204 203 201 199 198 197 196 195 193 192 191 189 188 186 184 183 181 179 179 178 178 178 178 178 178 178 177
121 123 117 136 162 250 293 138 128 87 72 258 238 209 199 204 211 221 226 219 222 230 234 243 248 217 137 206 248 255 251 244 246 248 247 249 241 225 231 243 246 243 237 231 227 221 221 222 219 220 219 214 211 211 210 206 204 206 206 204 203 200 197 197 196 195 194 193 193 192 190 189 187 184 183 181 180 180 179 179 180 179 180 179 178 178
135 132 153 162 157 211 214 134 117 123 203 239 218 175 180 197 205 214 224 222 219 222 228 240 245 222 188 220 241 250 249 239 238 239 229 229 235 234 238 242 244 245 240 234 228 224 224 225 223 224 222 219 217 215 213 210 210 210 208 205 204 202 199 198 196 196 196 195 195 194 191 189 187 184 183 181 181 181 180 181 181 181 181 180 179 179
151 144 161 164 135 172 178 127 140 201 226 232 157 152 178 196 204 213 223 223 220 223 230 239 243 230 214 224 234 243 251 252 251 246 233 222 217 222 237 244 242 242 239 236 232 227 223 220 220 222 223 222 220 215 212 211 210 208 207 205 204 202 200 198 197 197 198 197 196 194 192 189 186 184 183 182 182 182 182 182 183 182 181 181 181 181
166 162 154 143 130 129 146 163 187 226 256 267 87 182 189 188 194 209 228 235 228 224 228 234 238 233 222 232 242 248 283 300 298 259 236 226 219 217 229 239 236 229 231 233 230 225 222 219 220 222 223 220 215 211 211 211 207 204 203 202 202 202 200 199 198 197 198 197 196 194 192 189 186 185 184 183 183 183 183 184 183 183 182 181 181 181
169 163 147 160 177 133 152 196 225 320 313 256 235 230 180 161 166 181 219 244 231 222 225 228 235 237 231 237 243 234 11 333 311 273 240 225 226 224 226 236 236 230 236 243 242 242 240 235 232 229 224 218 213 211 210 207 204 200 198 199 200 200 200 199 199 199 198 198 197 194 192 190 189 187 186 185 184 184 185 185 185 184 184 182 181 180
170 169 162 175 200 98 124 192 258 276 263 242 203 173 164 166 164 161 197 245 231 216 218 217 224 231 228 231 228 187 129 286 272 264 241 217 227 231 231 244 251 247 251 256 254 252 247 240 237 231 222 215 212 212 209 204 200 197 195 196 197 197 198 198 200 201 200 200 198 195 194 192 191 190 188 186 186 186 186 186 186 186 185 185 184 182
119 138 150 159 166 136 155 185 201 219 243 225 161 163 168 163 140 124 195 259 225 201 207 207 216 225 223 223 210 159 152 229 249 254 230 208 225 230 225 244 254 253 256 257 254 253 248 235 228 220 212 211 211 210 206 201 197 194 193 195 195 195 197 200 203 204 203 202 200 197 196 194 193 193 191 189 189 188 188 188 187 186 186 186 186 184
151 159 160 170 185 181 181 200 217 229 248 218 180 174 164 148 125 114 237 259 209 190 193 188 203 221 218 210 189 162 190 219 235 250 225 198 223 207 202 251 270 275 276 273 259 251 242 221 208 199 202 210 211 206 201 197 194 193 194 195 194 197 203 206 207 206 203 202 201 199 198 196 195 195 194 192 190 189 189 189 188 186 185 185 186 185
155 177 184 186 187 179 185 212 249 265 247 228 205 176 152 134 124 165 219 230 186 190 194 184 200 216 206 183 172 191 215 218 222 277 15 75 76 70 11 310 310 300 298 296 270 244 223 206 202 202 208 213 209 202 197 193 192 193 195 195 197 204 209 210 206 204 202 202 201 200 199 198 198 197 195 193 191 190 190 189 188 188 187 185 185 185
162 171 195 183 173 167 186 206 261 278 237 181 148 179 165 141 164 211 215 183 167 183 184 189 201 198 169 169 190 211 221 216 221 280 7 57 87 56 358 345 352 347 336 343 316 215 198 193 196 200 206 208 203 199 196 192 192 194 195 198 205 210 212 208 205 203 202 201 201 201 200 199 198 197 196 194 193 191 189 188 188 189 189 187 186 186
173 170 191 192 172 145 161 180 225 264 229 138 120 144 237 189 199 215 166 76 189 175 160 184 200 184 169 182 206 219 219 218 239 264 340 47 62 52 22 6 13 9 5 20 42 148 180 180 180 184 191 195 197 198 195 193 193 194 197 204 210 213 210 208 206 203 201 201 201 201 201 200 199 198 197 196 195 193 190 189 188 189 190 189 187 185
191 182 188 199 189 170 178 196 211 219 180 145 141 172 207 194 193 190 143 138 207 181 157 175 195 192 185 183 198 214 217 228 245 258 7 83 87 81 64 31 26 22 21 33 51 80 148 159 156 157 168 182 192 196 197 197 196 196 202 209 212 210 208 207 205 202 201 202 202 201 201 201 200 200 199 197 196 193 191 189 188 188 190 190 189 187
215 195 174 182 199 190 187 207 227 204 170 162 155 183 191 168 142 140 131 128 207 194 165 170 193 200 190 171 168 189 207 219 223 198 164 153 118 99 86 55 39 40 43 52 67 80 108 137 142 146 153 170 188 196 199 201 201 201 206 211 210 209 208 205 202 202 201 201 201 201 201 200 200 200 200 198 196 194 192 190 189 189 189 189 189 189
264 213 151 146 192 242 248 206 173 214 215 205 319 339 217 172 128 125 115 100 206 179 142 152 187 184 175 163 158 181 210 211 199 179 155 130 115 114 112 95 74 65 76 85 85 91 114 131 139 146 151 162 183 196 201 204 205 208 212 212 210 210 209 205 202 201 201 201 201 201 200 199 199 199 199 199 197 196 196 195 193 192 190 189 189 191
281 210 149 130 165 206 227 189 155 183 216 218 249 318 294 270 306 148 137 136 152 134 115 119 143 144 156 168 169 183 205 199 181 167 134 116 122 129 116 106 97 87 93 99 99 110 133 138 141 150 156 165 182 194 200 203 207 213 217 215 211 209 208 205 202 201 201 201 200 200 200 200 199 198 198 197 196 196 197 197 196 194 192 190 190 191
216 163 157 174 175 179 201 199 192 240 256 237 238 270 241 217 202 114 132 135 124 110 101 94 108 122 133 152 167 166 161 167 165 148 128 124 129 130 134 146 133 110 104 114 120 130 144 148 152 160 168 174 182 192 198 201 206 212 215 215 213 209 205 204 203 202 202 201 201 201 201 201 200 199 197 196 196 197 197 197 197 197 197 197 196 196
146 159 176 172 170 203 269 225 186 3 336 284 250 237 224 197 158 136 130 128 122 115 103 83 72 92 107 118 150 143 127 139 157 139 130 134 132 134 154 156 132 117 119 125 126 131 144 152 157 165 171 177 183 191 198 202 206 211 215 215 213 209 204 203 203 203 203 203 202 202 202 201 201 200 198 197 197 198 199 200 200 200 201 203 203 203
146 166 154 128 178 225 230 180 164 142 169 235 233 220 203 179 154 146 142 138 138 137 126 106 83 69 70 66 90 129 124 124 126 116 114 120 133 152 156 147 142 139 133 130 130 129 131 137 151 165 171 176 185 194 201 206 208 212 217 218 215 211 208 205 203 202 203 204 204 204 203 202 202 202 201 200 198 198 200 202 202 203 204 205 206 207
178 183 169 164 202 223 187 166 174 176 187 212 207 173 160 158 148 145 147 148 144 138 131 121 109 94 69 44 43 84 110 119 122 114 104 98 111 134 140 139 142 142 134 136 140 135 132 135 143 159 170 182 199 208 213 215 216 217 219 221 219 216 214 211 206 203 205 206 207 207 206 204 204 203 203 203 201 200 198 198 199 203 207 208 208 209
Height
823 828 832 831 833 836 837 838 840 843 848 853 855 854 852 848 843 832 825 827 828 826 825 824 825 822 817 814 814 821 826 826 826 825 824 824 826 827 827 826 825 825 820 817 821 823 824 826 827 829 831 832 834 836 838 839 840 842 843 844 845 847 849 850 852 853 855 857 858 860 861 862 864 866 868 869 870 872 872 873 874 874 875 875 876 876
824 827 828 827 827 829 833 837 839 842 847 854 856 855 852 850 844 833 828 830 829 828 825 824 827 824 818 815 816 821 823 821 820 820 820 821 823 824 824 824 822 821 818 818 820 820 821 823 824 826 827 829 830 832 834 836 837 839 840 841 843 845 847 847 849 851 852 854 856 858 859 861 863 864 866 868 869 870 871 872 873 873 874 874 874 875
829 827 824 824 823 827 834 837 840 843 847 853 856 856 853 847 841 833 829 830 830 828 826 826 827 822 816 813 815 819 817 814 815 815 815 816 819 820 820 819 820 819 818 818 817 817 818 819 821 823 824 825 826 828 831 833 834 836 837 838 840 842 844 845 847 848 850 852 854 856 858 860 861 862 864 866 867 869 870 871 872 872 872 872 872 873
829 826 822 821 823 828 835 837 839 844 848 852 856 858 854 846 841 835 829 830 831 830 829 828 826 820 814 813 812 813 813 810 811 813 813 815 814 813 814 816 817 817 815 816 815 814 815 817 818 819 820 821 823 825 827 829 831 833 834 835 837 839 841 843 844 846 848 851 853 855 857 858 860 861 862 863 865 867 868 869 870 870 871 871 871 872
826 825 820 820 822 826 834 837 838 844 849 850 852 855 851 844 840 837 833 832 831 833 832 829 829 820 810 812 809 806 812 812 809 811 811 812 811 810 812 813 812 812 812 812 811 811 812 813 814 815 815 817 819 821 822 825 827 829 831 832 834 836 838 840 842 844 846 849 851 853 855 857 858 859 860 861 863 864 866 867 868 869 869 869 870 870
825 823 820 821 823 825 832 837 837 840 846 848 847 846 846 842 838 836 836 835 833 833 831 830 836 825 809 810 807 803 809 809 807 810 807 806 808 811 811 808 807 808 808 809 808 808 809 810 811 812 812 814 814 816 818 821 824 826 828 830 832 834 835 837 839 842 844 846 848 850 852 854 855 857 858 859 861 862 864 865 866 867 867 868 868 869
823 822 818 820 822 826 831 835 836 836 845 850 842 837 840 839 838 836 836 837 836 835 833 834 836 830 815 804 801 805 809 806 806 807 805 804 805 806 805 802 802 803 803 805 806 806 807 807 808 808 808 809 809 811 815 818 821 823 825 828 830 831 833 835 837 839 841 843 845 847 848 850 852 854 856 858 859 861 862 863 864 865 866 866 867 867
821 823 822 820 823 829 831 833 833 833 843 848 837 833 836 837 838 837 836 838 837 835 835 835 834 834 823 804 801 812 810 804 806 804 802 802 801 801 799 797 798 798 798 801 802 803 803 803 804 804 804 804 805 808 812 814 817 819 822 825 827 828 830 832 834 836 838 840 842 844 846 848 849 851 853 855 857 858 860 861 862 863 864 865 865 866
818 822 823 821 825 830 827 825 827 828 837 839 834 834 836 838 839 837 838 839 839 838 834 833 835 836 824 806 806 814 806 799 800 798 796 795 795 794 793 792 792 793 794 796 797 798 799 799 799 800 800 801 803 806 808 811 813 816 819 822 824 825 827 829 831 833 835 837 839 841 843 845 847 849 851 853 855 856 858 859 860 861 862 863 863 864
817 817 816 818 823 825 823 823 822 824 830 831 832 834 835 839 841 842 843 840 841 844 834 828 832 833 821 804 803 810 804 798 795 791 790 788 789 789 788 788 789 791 793 794 794 795 795 796 797 798 799 800 802 804 806 809 811 814 816 819 821 822 824 826 828 830 832 834 836 838 840 842 845 847 849 851 852 854 856 857 858 859 861 862 862 863
815 814 815 817 819 820 823 826 826 827 828 829 831 832 835 839 840 844 844 840 845 844 830 825 828 830 823 804 797 800 795 791 789 787 786 784 784 785 785 786 786 788 791 792 793 793 793 795 795 797 798 799 800 802 804 807 809 811 813 815 817 819 821 823 825 827 829 831 833 835 838 840 842 844 846 848 850 852 853 855 856 858 859 860 861 862
816 817 818 817 817 819 823 827 830 831 830 832 832 834 841 846 844 846 845 846 851 840 830 837 838 834 826 805 793 792 787 785 786 783 780 778 779 781 783 785 786 787 788 789 791 790 791 792 793 794 795 797 799 800 802 804 806 808 810 813 814 816 818 820 822 824 826 828 830 833 835 837 839 841 843 844 846 849 851 852 854 856 857 858 859 860
819 818 817 817 817 817 822 829 834 834 833 836 837 840 851 855 855 855 851 850 850 838 837 846 841 830 819 801 790 789 787 785 785 783 779 776 777 778 780 783 786 787 787 787 788 788 789 789 790 791 792 794 796 797 800 802 804 806 808 810 812 813 815 817 819 821 823 825 828 830 833 835 837 839 840 842 844 846 848 850 852 854 855 856 857 858
821 820 816 817 818 814 816 824 831 832 834 838 840 845 852 856 858 858 853 851 845 837 840 845 838 825 810 795 786 782 779 779 783 784 783 782 781 779 780 784 786 786 786 786 785 786 787 786 787 788 789 791 793 795 797 799 801 804 805 807 809 810 813 815 816 819 820 822 825 827 830 832 834 836 838 840 841 843 845 847 849 852 853 854 856 857
815 816 811 810 812 810 811 815 817 823 832 836 834 839 845 844 845 847 845 841 835 834 841 842 832 817 800 789 784 782 780 781 784 786 787 788 787 786 786 786 785 784 784 785 785 785 785 784 785 786 788 789 791 793 795 797 799 801 803 805 806 808 810 812 814 815 818 820 822 825 827 829 831 834 836 837 839 841 843 845 847 850 851 853 854 855
805 806 803 804 805 805 810 812 809 817 831 834 830 835 839 833 829 837 841 838 834 832 836 835 823 807 795 785 782 785 784 779 781 783 785 785 785 787 785 780 780 781 782 784 784 784 784 784 785 785 787 788 790 792 793 795 797 799 801 802 804 805 807 809 811 812 815 817 819 822 824 826 828 831 833 835 837 839 841 843 845 848 850 851 853 854
803 805 805 805 807 806 808 810 808 812 822 829 832 831 829 825 823 833 843 846 843 833 826 825 814 802 796 785 776 779 778 773 774 777 777 777 780 784 778 773 777 780 781 783 783 784 784 784 784 785 786 788 789 791 792 794 796 797 799 800 801 803 804 806 808 810 812 814 816 819 821 823 826 828 830 832 835 837 839 841 843 846 848 849 851 852
793 805 808 803 807 809 807 807 808 808 811 821 829 824 822 827 826 829 836 839 841 833 823 822 814 801 800 791 776 774 772 768 768 768 770 773 778 777 771 771 778 779 780 782 782 783 783 783 784 784 785 787 788 790 791 792 794 795 797 798 799 801 802 804 806 807 810 811 813 816 818 820 823 825 828 830 833 835 837 839 842 844 846 848 849 851
779 798 810 803 804 811 810 809 812 811 809 813 817 815 819 829 829 829 833 832 833 830 819 819 820 810 803 792 777 772 770 764 763 764 766 768 768 769 768 772 777 777 779 780 779 782 782 782 783 783 785 786 787 789 790 791 793 794 795 796 797 799 800 802 803 805 807 809 811 813 816 818 821 823 826 828 830 833 835 838 840 842 844 846 848 849
772 789 808 805 802 808 810 809 810 811 812 814 815 814 815 819 820 822 824 822 824 824 817 814 815 807 798 788 774 768 768 763 759 760 762 763 764 767 770 771 773 775 776 777 778 780 781 782 782 783 784 785 786 788 789 790 791 792 794 795 796 797 799 800 801 803 805 807 809 811 814 816 819 821 824 826 828 831 834 836 838 841 843 844 846 848
771 781 801 807 805 808 808 804 801 803 810 814 815 817 816 814 814 814 814 814 815 817 815 814 810 796 785 780 771 762 761 759 758 760 761 763 765 768 771 772 773 775 775 776 778 779 780 781 781 783 784 785 786 787 788 789 791 792 793 794 796 796 798 799 800 802 803 805 807 809 812 814 816 819 822 824 827 829 832 834 836 839 841 843 845 846
770 778 794 805 806 804 801 799 799 798 800 806 809 812 812 811 814 818 818 815 811 812 813 812 809 790 771 771 769 760 755 757 763 766 763 764 765 767 770 772 773 775 775 776 778 778 780 780 781 782 783 784 785 786 788 789 790 792 793 794 795 796 797 798 799 801 802 804 806 808 810 812 815 817 820 823 825 827 830 832 835 837 839 841 843 845
767 778 793 803 803 801 802 806 809 803 797 801 805 805 805 807 810 814 816 813 811 815 816 814 809 786 766 769 771 764 762 765 772 774 767 764 766 766 769 771 773 775 775 777 778 779 780 780 781 782 783 784 785 785 787 788 789 791 792 794 795 796 797 798 799 801 802 804 806 807 809 811 814 816 818 821 823 826 828 830 833 835 837 840 842 844
763 775 791 802 801 800 801 804 808 807 801 799 801 801 803 804 804 805 809 809 807 806 807 811 806 781 764 771 776 773 773 773 774 776 770 764 765 768 770 770 771 774 775 777 778 779 780 781 781 782 782 783 784 785 786 787 789 791 792 794 795 795 797 798 799 801 802 804 806 807 809 811 813 815 817 819 822 824 827 829 831 834 836 838 840 843
760 772 785 799 807 808 807 806 803 803 801 797 798 802 802 801 805 808 810 811 806 798 795 800 796 776 763 768 772 771 771 765 764 772 772 766 764 767 769 769 771 774 775 776 778 779 779 780 780 781 781 782 783 784 785 787 788 790 791 793 794 795 797 798 800 801 802 804 806 807 809 811 813 815 816 819 821 823 825 827 830 832 835 837 839 841
757 768 774 785 799 804 802 797 787 786 795 798 798 802 804 803 804 805 807 809 804 798 795 792 786 772 762 760 760 760 761 758 756 764 771 769 767 767 768 768 770 773 774 775 777 778 778 779 779 779 779 780 781 782 784 786 787 789 790 792 793 795 796 798 800 801 802 804 805 807 808 810 812 814 816 818 820 822 824 827 829 831 834 836 838 840
756 764 765 767 773 774 772 771 766 770 785 791 790 793 798 801 801 802 806 804 798 799 798 789 782 776 764 756 755 755 757 759 757 759 762 763 764 765 766 768 770 772 773 774 775 776 777 777 777 777 777 778 779 781 782 784 786 787 789 790 792 794 796 797 799 800 802 803 805 806 807 809 812 814 816 818 820 822 824 826 829 830 833 835 837 840
754 762 761 760 762 760 759 762 763 767 774 779 784 788 790 794 798 800 800 794 790 796 792 782 782 781 769 759 755 752 754 759 759 758 759 761 763 766 767 768 769 770 772 773 773 774 774 774 775 775 776 777 778 779 781 782 784 786 787 789 790 792 794 796 797 799 800 802 803 805 807 809 811 813 816 818 820 822 824 826 828 830 832 835 837 839
750 757 756 759 764 762 760 762 762 765 770 775 781 785 786 790 794 794 790 786 788 789 780 775 779 777 770 763 754 751 757 760 758 760 763 765 766 767 767 766 765 767 769 770 771 771 772 772 773 773 774 775 776 777 778 780 782 783 785 787 788 790 792 794 796 797 798 800 801 804 806 808 810 812 814 817 819 821 823 825 828 830 832 835 836 838
743 751 753 759 765 765 766 766 763 765 770 775 778 780 783 787 787 786 783 783 787 785 778 780 779 772 770 765 754 754 763 766 764 764 764 762 762 764 764 763 762 765 768 768 768 769 769 769 770 771 772 772 773 774 776 778 779 781 783 784 786 788 789 791 793 795 796 798 800 802 805 806 808 811 813 816 818 820 822 824 826 829 831 834 835 837
742 749 755 760 765 770 773 772 769 768 769 773 777 778 779 780 781 780 779 782 787 783 780 786 783 774 772 768 762 761 764 765 765 762 758 759 763 764 762 761 760 761 764 766 766 766 767 768 768 769 769 769 769 772 773 775 777 779 780 782 783 785 787 789 791 793 795 797 799 801 803 804 807 809 812 814 817 819 821 823 825 828 830 832 834 836
745 754 758 760 767 773 774 776 776 773 772 776 777 774 773 774 774 774 774 778 779 776 781 786 779 770 768 767 764 761 759 761 761 756 755 757 760 761 757 754 754 755 758 761 762 764 765 765 765 764 764 766 767 769 770 772 774 776 777 779 781 783 786 788 790 792 794 796 797 799 801 803 806 808 811 813 815 817 820 822 824 827 829 831 833 834
747 754 758 761 766 772 778 778 774 775 782 778 764 759 765 768 769 770 768 767 767 770 777 775 763 759 761 760 759 756 755 759 758 754 754 754 754 757 756 752 751 751 754 757 759 761 760 759 760 760 761 763 765 765 767 769 771 773 774 777 780 782 785 787 789 791 792 794 796 798 800 802 804 807 809 811 814 816 818 821 823 826 828 829 831 833
745 747 755 758 759 771 783 778 772 782 784 761 736 737 753 760 761 763 761 759 761 762 761 755 750 753 757 754 753 752 750 752 752 750 752 751 750 752 753 751 750 750 753 755 755 755 755 755 757 758 759 760 761 762 765 767 769 771 774 777 779 781 783 785 787 789 791 792 794 796 798 801 803 805 807 810 812 815 817 820 822 824 826 828 830 831
740 744 751 753 756 773 783 777 777 782 764 736 726 733 740 743 746 751 752 753 754 754 752 750 749 750 751 748 746 746 745 747 749 749 750 750 749 748 747 747 747 748 750 751 750 751 752 753 754 755 756 757 759 761 764 765 768 770 773 775 777 779 781 783 785 787 789 791 793 795 797 799 801 803 806 808 811 814 816 819 821 823 825 827 828 830
734 740 747 753 763 776 779 773 768 761 741 732 738 740 736 738 744 750 754 751 747 748 749 747 745 746 748 747 745 747 750 750 750 748 746 747 747 747 745 742 742 745 745 744 745 747 748 749 750 751 752 754 757 759 761 763 765 768 771 773 776 778 780 782 784 785 787 789 790 793 795 797 800 802 804 807 809 812 815 817 819 822 824 826 827 829
729 734 740 752 763 766 768 764 755 747 740 736 737 736 734 736 739 745 750 744 736 738 742 742 744 746 746 745 746 751 754 752 749 744 741 744 745 743 742 739 739 741 742 741 743 744 744 746 747 748 750 752 754 756 757 761 764 766 769 772 774 776 779 781 782 783 785 787 788 791 793 795 798 800 802 805 807 810 813 815 818 820 822 824 825 827
729 730 730 744 760 763 763 763 760 755 744 728 723 726 728 728 729 736 742 736 726 727 732 736 738 739 740 742 745 750 754 753 748 739 735 739 740 737 738 739 739 740 740 741 742 742 742 744 745 746 748 749 751 753 755 758 761 764 767 769 771 774 776 778 780 781 783 784 786 789 791 793 796 798 800 803 805 808 811 814 816 819 820 822 824 825
733 733 728 737 755 759 754 755 757 750 734 719 717 722 726 728 727 735 744 735 718 717 724 728 732 733 733 736 741 747 752 752 744 733 730 733 733 733 736 738 737 738 739 739 741 741 741 742 743 745 747 747 749 751 753 756 759 761 764 766 769 772 773 774 775 777 779 782 785 788 790 792 794 796 798 801 803 806 809 812 814 817 819 821 823 824
733 734 734 738 745 747 746 748 745 735 724 719 716 718 724 726 726 739 748 730 707 708 716 719 723 726 725 728 737 743 744 741 734 728 727 731 732 734 736 736 736 737 738 738 739 739 740 741 742 743 744 745 746 749 751 754 757 759 762 764 767 768 768 768 771 774 777 781 783 786 788 790 792 795 797 799 802 805 808 810 813 815 817 820 821 823
735 735 737 737 738 744 745 742 738 727 719 718 720 722 723 723 728 737 733 714 701 705 713 715 716 718 721 727 735 736 731 727 726 726 729 733 733 735 737 737 737 738 737 737 738 738 739 740 740 742 743 743 746 748 750 753 755 758 760 763 763 763 764 766 770 774 777 779 782 784 786 789 791 794 797 799 801 804 807 809 811 813 815 817 819 821
728 731 735 733 736 743 741 739 740 728 711 710 723 729 723 720 724 721 710 706 705 705 710 716 716 717 722 726 729 727 724 725 727 728 731 734 734 736 739 739 738 738 738 737 738 738 739 740 741 742 743 744 746 748 750 752 755 757 759 761 761 761 765 768 771 774 776 778 781 783 785 788 791 793 796 798 800 803 805 808 810 812 814 816 817 819
713 718 726 727 730 737 740 742 739 721 703 705 720 728 722 714 710 704 701 709 712 707 708 715 716 718 721 722 724 725 726 727 728 728 731 735 736 738 739 739 739 739 739 738 738 739 740 740 742 743 744 746 747 748 750 752 755 757 758 759 760 763 766 769 770 773 775 777 780 782 784 787 790 792 794 797 799 802 803 805 808 810 811 813 815 817
706 708 713 716 718 723 727 726 716 704 701 705 706 708 709 708 707 704 701 704 710 713 712 711 713 720 720 717 720 725 726 728 729 729 731 734 736 738 739 739 740 740 739 739 739 740 741 741 743 744 745 747 748 749 751 752 754 757 758 759 762 764 766 768 770 772 775 776 779 781 784 786 789 791 793 796 798 800 802 803 806 808 809 811 813 815
697 696 699 702 706 708 707 705 703 703 707 707 703 701 702 705 710 711 705 702 706 713 715 711 712 719 722 720 721 723 724 727 728 729 732 733 736 739 739 739 740 740 740 741 740 740 742 742 743 745 746 747 749 750 752 753 754 756 758 759 762 764 765 767 770 771 774 776 778 780 783 785 788 790 792 794 796 798 799 801 803 805 807 809 811 813
699 698 695 695 702 706 704 704 707 707 706 708 711 713 710 709 711 712 708 706 708 713 718 717 714 717 722 724 722 722 724 726 727 730 733 735 737 740 740 740 742 741 740 741 741 741 742 742 744 745 746 747 749 750 752 753 754 756 758 759 761 763 764 767 769 770 773 775 777 779 782 784 786 789 791 793 795 796 797 798 800 802 804 807 809 811
702 700 695 695 700 702 700 702 705 704 704 708 711 713 714 714 717 716 711 710 714 718 721 721 719 722 724 724 722 722 725 728 728 730 734 736 738 740 741 742 742 742 742 742 742 742 743 743 745 746 746 748 749 750 751 753 754 756 757 759 761 763 764 766 768 770 772 774 776 778 780 782 784 786 788 791 792 794 796 797 798 800 801 804 806 809
695 695 696 698 700 699 699 705 710 709 709 712 712 712 712 712 716 719 718 716 719 722 723 723 724 724 724 725 725 725 726 730 731 731 735 738 738 740 742 743 743 743 744 744 744 744 745 745 746 747 747 748 749 750 751 753 754 755 757 758 760 762 763 766 767 769 771 773 775 777 778 781 782 784 786 788 789 791 793 794 796 797 799 801 803 805
693 692 693 695 697 697 700 711 716 711 709 712 712 710 712 713 715 719 720 720 721 721 723 725 726 726 726 727 728 726 726 730 733 733 735 738 739 741 742 743 744 745 744 745 746 746 746 747 747 747 748 749 750 751 752 753 754 755 756 758 759 761 763 765 766 768 770 771 773 775 777 779 780 782 784 785 787 789 791 792 794 795 797 800 801 803
691 687 691 696 695 690 690 699 705 700 698 702 702 702 708 715 716 716 717 719 719 720 721 723 726 729 730 729 730 729 727 730 735 736 736 738 740 741 742 743 744 745 745 745 746 746 747 748 748 748 749 750 751 752 753 753 754 756 757 758 759 761 762 764 765 767 768 770 771 773 775 777 779 781 783 784 786 788 790 792 794 795 797 799 801 802
683 680 684 687 684 681 681 688 693 689 687 692 695 699 709 715 715 714 715 717 719 721 722 722 723 727 730 731 732 731 730 733 736 736 737 739 741 741 742 743 744 745 746 746 746 747 747 748 748 749 750 750 752 753 753 754 755 756 757 759 760 761 762 763 765 766 767 769 771 772 774 776 778 780 782 783 785 786 788 790 793 795 797 798 800 801